[[{"header":{"parameterUnit":"m.s-1","parameterCategory":1,"la1":30.2991,"la2":30.254,"lo1":-89.0895,"lo2":-89.0444,"dy":0.0017,"dx":0.0017,"nx":28,"ny":28,"refTime":"2023-08-02T21:00:00:Z","depth":0,"parameterNumber":2,"parameterNumberName":"U-component_of_WINDS"},"data":[0,0,0,0,0,0,0,0,0,0,0,0,0,0,0,0,0,0,0,0,0,0,0,0,0,0,0,0,0,0,0,0,0,0,0,0,0,0,0,0,0,0,0,0,0,0,0,0,0,0,0,0,0,0,0,0,0,0,3.4306,3.4308,0,3.4477,3.4479,3.4481,3.4452,3.4449,3.4446,3.4444,3.4627,3.4635,3.4642,0,0,0,0,0,0,0,0,0,0,0,0,0,3.3962,3.3969,3.4306,3.4308,3.431,3.4477,3.4479,3.4482,3.4453,3.4449,3.4446,3.4442,3.4625,3.4634,3.4643,0,0,0,0,0,0,0,0,0,0,0,0,0,3.4121,3.3971,3.4305,3.4316,3.4318,3.4477,3.448,3.4482,3.4454,3.4449,3.4445,3.444,3.4622,3.4633,3.4644,3.4806,0,0,3.4679,3.4684,0,0,0,0,0,0,0,0,3.4112,3.4133,3.4312,3.4315,3.4318,3.4439,3.4426,3.4591,3.4455,3.4403,3.4443,3.4438,3.4569,3.4584,3.4626,3.4814,3.4822,3.468,3.4687,3.4692,3.4696,0,0,0,0,0,0,0,3.4101,3.4126,3.4374,3.4315,3.4319,3.4315,3.4332,3.4457,3.4509,3.4407,3.4405,3.4425,3.457,3.4615,3.4631,3.4825,3.468,3.469,3.4697,3.4702,3.5157,3.5162,0,0,0,0,0,0,3.4085,3.4117,3.4368,3.4379,3.4201,3.4324,3.4344,3.4405,3.4507,3.4519,3.4429,3.4423,3.4598,3.4617,3.4637,3.4835,3.4692,3.4703,3.471,3.5152,3.5159,3.5164,0,0,0,0,0,0,3.4078,3.4108,3.4361,3.4248,3.4279,3.4335,3.4404,3.4411,3.4456,3.4524,3.4534,3.4466,3.4595,3.4621,3.4764,3.4841,3.4708,3.4719,3.5146,3.5154,3.5161,3.5231,0,0,0,0,0,0,3.4068,3.4106,3.4165,3.4249,3.4285,3.4483,3.4408,3.4417,3.4475,3.447,3.4561,3.4572,3.4594,3.4747,3.4776,3.4854,3.4728,3.514,3.515,3.5159,3.5222,3.524,3.5255,0,0,0,0,0,3.4056,3.4179,3.4168,3.4199,3.4361,3.4487,3.4509,3.4528,3.4481,3.4544,3.4588,3.4569,3.4828,3.4762,3.4794,3.4877,3.5135,3.5147,3.5158,3.5214,3.5236,3.5255,0,0,0,0,0,0,3.4104,3.419,3.4179,3.4332,3.4402,3.4482,3.4561,3.4551,3.4638,3.4629,3.4652,3.4674,3.482,3.4863,3.4788,3.5041,3.4975,3.4994,3.5007,3.5029,3.5045,3.5032,3.4737,0,0,0,0,0,3.4132,3.4225,3.4296,3.4424,3.446,3.4505,3.4561,3.457,3.4645,3.4675,3.473,3.4806,3.4904,3.4969,3.5063,3.5228,3.5249,3.5302,3.5318,3.5332,3.5348,3.5442,3.5466,3.5203,3.5202,3.5202,0,0,3.4192,3.425,3.4308,3.4436,3.4491,3.4591,3.453,3.4637,3.4711,3.4692,3.4831,3.4874,3.4961,3.5116,3.5187,3.5157,3.5425,3.5346,3.5357,3.5366,3.5456,3.5481,3.5503,3.521,3.5209,3.5208,0,0,3.4351,3.4403,3.4517,3.4574,3.4659,3.4688,3.4716,3.4798,3.4825,3.4964,3.4953,3.5044,3.5212,3.5275,3.5329,3.5515,3.5503,3.5546,3.5633,3.5725,3.5745,3.5764,3.5833,3.5857,3.5561,3.5562,3.5562,0,3.4415,3.4561,3.4577,3.4686,3.4744,3.473,3.4847,3.4903,3.5015,3.5057,3.502,3.5233,3.529,3.5462,3.5507,3.5551,3.5586,3.5535,3.574,3.5759,3.5777,3.5843,3.5868,3.5566,3.5566,3.5565,3.5565,0,3.4637,3.4739,3.4821,3.4928,3.4996,3.5108,3.5145,3.5212,3.5216,3.525,3.5394,3.5462,3.5571,3.5613,3.5618,3.5787,3.5765,3.5734,3.5669,3.5807,3.5869,3.5894,3.5573,3.5571,3.557,3.5569,0,0,3.483,3.4946,3.4976,3.5026,3.512,3.52,3.5314,3.5419,3.5477,3.5556,3.5654,3.5798,3.5771,3.5832,3.5845,3.5925,3.6071,3.5885,3.5888,3.5919,3.6264,3.6287,3.6316,3.6063,3.6068,3.6072,3.6258,0,3.5,3.5197,3.5217,3.5396,3.5492,3.5481,3.5581,3.5651,3.5687,3.5776,3.5817,3.5919,3.5874,3.5912,3.599,3.6037,3.6141,3.6024,3.6158,3.6162,3.6137,3.6348,3.6373,3.6544,3.6282,3.6286,3.6289,0,3.5223,3.5307,3.5495,3.5578,3.5619,3.5708,3.5807,3.5891,3.5973,3.5993,3.6063,3.6066,3.6187,3.6117,3.6285,3.6205,3.6261,3.6293,3.63,3.6315,3.6234,3.637,3.6599,3.6625,3.6327,3.6324,3.6321,0,3.5348,3.5508,3.5642,3.5685,3.5784,3.5847,3.5892,3.5968,3.6031,3.6119,3.616,3.6262,3.6318,3.6398,3.643,3.6375,3.6598,3.6529,3.6621,3.6621,3.6669,3.6666,3.6912,3.6703,3.6703,3.6702,3.6702,0,3.5536,3.5652,3.5699,3.5782,3.5913,3.5936,3.6066,3.6108,3.6177,3.6269,3.6267,3.6355,3.6391,3.6486,3.6512,3.6649,3.6674,3.6696,3.6702,3.6697,3.6695,3.6735,3.6724,3.6709,3.6708,3.6707,3.6705,0,3.5697,3.5733,3.5879,3.5961,3.5985,3.6078,3.615,3.6232,3.6266,3.6384,3.6414,3.647,3.6581,3.6621,3.6756,3.6774,3.6934,3.6929,3.6906,3.6908,3.6998,3.6989,3.728,3.732,3.7084,3.7086,3.7088,0,3.5814,3.5903,3.5996,3.6057,3.6104,3.6202,3.6266,3.6293,3.6361,3.6461,3.6531,3.6642,3.6731,3.6911,3.6966,3.707,3.7069,3.7164,3.7085,3.7078,3.7073,3.7067,3.7077,3.7179,3.7181,3.7183,3.7185,0,3.602,3.6035,3.6125,3.6224,3.63,3.6379,3.6456,3.6507,3.6547,3.6623,3.6736,3.6806,3.6944,3.7055,3.7163,3.7212,3.7207,3.7209,3.7236,3.7232,3.7216,3.7227,3.6948,3.7202,3.72,3.7199,3.7198,3.7197,3.6165,3.6244,3.6322,3.6424,3.6485,3.6558,3.6639,3.6684,3.6778,3.6892,3.6903,3.7026,3.7108,3.7251,3.7306,3.7405,3.7379,3.7418,3.7428,3.7437,3.7444,3.7199,3.7424,3.7424,3.7423,3.7423,3.7423,0,3.6372,3.6422,3.6516,3.6623,3.6705,3.669,3.6775,3.6845,3.6952,3.7028,3.7117,3.7249,3.7357,3.742,3.7529,3.7596,3.7596,3.7624,3.762,3.7632,3.746,3.7427,3.7622,3.7622,3.7622,3.7622,3.7622,3.7622,3.6489,3.6624,3.6648,3.6814,3.6863,3.6982,3.7032,3.71,3.7161,3.7308,3.7397,3.7437,3.7509,3.7624,3.7724,3.774,3.7781,3.7811,3.7825,3.7664,3.7644,3.7624,3.7593,3.782,3.782,3.7989,3.799,3.7992]},{"header":{"parameterUnit":"m.s-1","parameterCategory":1,"la1":30.2991,"la2":30.254,"lo1":-89.0895,"lo2":-89.0444,"dy":0.0017,"dx":0.0017,"nx":28,"ny":28,"refTime":"2023-08-02T21:00:00:Z","depth":0,"parameterNumber":3,"parameterNumberName":"V-component_of_WINDS"},"data":[0,0,0,0,0,0,0,0,0,0,0,0,0,0,0,0,0,0,0,0,0,0,0,0,0,0,0,0,0,0,0,0,0,0,0,0,0,0,0,0,0,0,0,0,0,0,0,0,0,0,0,0,0,0,0,0,0,0,2.8801,2.8804,0,2.9026,2.9029,2.9031,2.9044,2.9042,2.9039,2.9037,2.9268,2.9276,2.9284,0,0,0,0,0,0,0,0,0,0,0,0,0,2.838,2.8388,2.8801,2.8804,2.8807,2.9026,2.9029,2.9032,2.9045,2.9042,2.9038,2.9035,2.9265,2.9275,2.9285,0,0,0,0,0,0,0,0,0,0,0,0,0,2.858,2.839,2.8801,2.8839,2.8845,2.9025,2.9029,2.9033,2.9045,2.9041,2.9038,2.9034,2.9262,2.9274,2.9287,2.9443,0,0,2.9326,2.9331,0,0,0,0,0,0,0,0,2.8568,2.8595,2.8831,2.8837,2.8844,2.9003,2.8965,2.917,2.9046,2.8969,2.9037,2.9032,2.9183,2.9202,2.9253,2.9454,2.9464,2.9327,2.9335,2.934,2.9344,0,0,0,0,0,0,0,2.8554,2.8585,2.889,2.8834,2.8842,2.8845,2.8869,2.9004,2.9095,2.8976,2.8977,2.9004,2.9186,2.924,2.9258,2.9467,2.9327,2.9338,2.9346,2.9351,2.9802,2.9806,0,0,0,0,0,0,2.8533,2.8574,2.8883,2.8897,2.8694,2.8855,2.8882,2.8956,2.9094,2.9111,2.9007,2.9003,2.922,2.9243,2.9266,2.9454,2.934,2.9352,2.936,2.9798,2.9803,2.9808,0,0,0,0,0,0,2.8524,2.8561,2.8874,2.8736,2.8776,2.8867,2.8949,2.8962,2.9017,2.9117,2.9133,2.9046,2.9218,2.9248,2.9398,2.9463,2.9358,2.937,2.9793,2.9799,2.9805,2.9834,0,0,0,0,0,0,2.8512,2.8557,2.8619,2.8737,2.8783,2.9003,2.8953,2.897,2.9039,2.9037,2.9158,2.9174,2.9217,2.9378,2.941,2.9478,2.938,2.9787,2.9796,2.9803,2.9828,2.9841,2.9852,0,0,0,0,0,2.8497,2.862,2.8622,2.8659,2.8862,2.9006,2.9033,2.9079,2.9044,2.9106,2.9169,2.9171,2.9451,2.9394,2.943,2.9503,2.9783,2.9793,2.9803,2.9822,2.9838,2.9852,0,0,0,0,0,0,2.8508,2.8636,2.864,2.8805,2.8894,2.9008,2.9088,2.9096,2.9198,2.9191,2.9245,2.9272,2.9419,2.9476,2.941,2.9658,2.9613,2.963,2.9615,2.9631,2.9643,2.9626,2.939,0,0,0,0,0,2.853,2.8637,2.8742,2.8877,2.8922,2.8997,2.9062,2.9089,2.9185,2.9223,2.9298,2.9389,2.9497,2.9568,2.9674,2.9836,2.986,2.9904,2.9916,2.9925,2.9939,3.0024,3.0043,2.9839,2.9839,2.9839,0,0,2.8576,2.8658,2.8723,2.8882,2.8954,2.9062,2.9029,2.9146,2.9226,2.9241,2.9385,2.9443,2.9549,2.9704,2.9776,2.9756,3.0,2.9937,2.9944,2.9953,3.0036,3.0055,3.0072,2.9846,2.9845,2.9844,0,0,2.8713,2.8788,2.8906,2.8979,2.9089,2.9137,2.9165,2.9277,2.9315,2.9461,2.9473,2.9568,2.9755,2.9828,2.989,3.005,3.0053,3.0083,3.0145,3.0227,3.0243,3.0258,3.0311,3.0329,3.0096,3.0096,3.0097,0,2.8756,2.892,2.8967,2.9082,2.9149,2.9166,2.9284,2.9353,2.9491,2.9537,2.9512,2.9743,2.9816,2.9986,3.0024,3.0075,3.0106,3.0069,3.0237,3.0252,3.0266,3.0317,3.0337,3.0099,3.0099,3.0098,3.0098,0,2.8965,2.9078,2.916,2.9291,2.9368,2.9485,2.9547,2.9619,2.9639,2.9689,2.9834,2.9922,3.0042,3.0085,3.0107,3.0257,3.024,3.0226,3.0181,3.0287,3.0336,3.0356,3.0103,3.0102,3.0101,3.01,0,0,2.9119,2.927,2.9299,2.9357,2.9477,2.9565,2.968,2.9797,2.9856,2.995,3.0046,3.0201,3.0186,3.0256,3.0286,3.0358,3.0473,3.0335,3.0338,3.0354,3.0638,3.0646,3.0669,3.0477,3.0481,3.0484,3.0628,0,2.9267,2.9472,2.9515,2.9692,2.9794,2.9809,2.9909,2.9992,3.0041,3.0134,3.0188,3.0295,3.0271,3.0312,3.0384,3.0444,3.0531,3.0435,3.0564,3.0568,3.0534,3.0695,3.0705,3.0837,3.0648,3.0651,3.0654,0,2.9468,2.9564,2.9751,2.9852,2.9897,2.9986,3.0094,3.0183,3.0276,3.0306,3.0382,3.0402,3.052,3.047,3.063,3.0563,3.0619,3.0655,3.0661,3.0674,3.0616,3.0708,3.0881,3.0899,3.0685,3.0682,3.068,0,2.9556,2.9732,2.9865,2.9915,3.0038,3.0099,3.0153,3.0242,3.0308,3.0402,3.0445,3.0552,3.061,3.0691,3.0739,3.0698,3.0894,3.0849,3.0919,3.0918,3.0959,3.0956,3.114,3.0999,3.0999,3.0998,3.0998,0,2.9715,2.9828,2.9905,2.9987,3.0112,3.016,3.0282,3.0335,3.0414,3.0504,3.0525,3.0609,3.0668,3.076,3.0798,3.0922,3.0949,3.0974,3.0983,3.0971,3.0968,3.1007,3.0998,3.1004,3.1003,3.1002,3.1001,0,2.9834,2.9892,3.0037,3.014,3.0168,3.0255,3.0343,3.0421,3.0469,3.0583,3.0612,3.0687,3.0795,3.0851,3.0987,3.1012,3.1151,3.1156,3.1119,3.1122,3.1188,3.118,3.1403,3.1432,3.1274,3.1275,3.1277,0,2.9931,3.0018,3.0129,3.019,3.0245,3.0345,3.0411,3.046,3.0528,3.0637,3.0702,3.0811,3.0901,3.1073,3.1138,3.1241,3.1246,3.1317,3.1262,3.1245,3.1242,3.1235,3.1242,3.1326,3.1327,3.1329,3.133,0,3.0096,3.0118,3.0213,3.0317,3.0395,3.0479,3.0562,3.0611,3.0673,3.0747,3.0858,3.0927,3.1064,3.1171,3.1277,3.1331,3.1339,3.1346,3.1367,3.1355,3.1329,3.134,3.1143,3.1341,3.134,3.1339,3.1338,3.1338,3.0205,3.028,3.0369,3.0472,3.0539,3.0615,3.0692,3.0748,3.0841,3.0955,3.0978,3.1094,3.118,3.1324,3.1381,3.147,3.1455,3.1487,3.1494,3.1501,3.1501,3.1316,3.149,3.149,3.149,3.149,3.149,0,3.0367,3.0424,3.0518,3.0632,3.0712,3.0713,3.0804,3.087,3.0972,3.1052,3.1138,3.1262,3.1365,3.1437,3.154,3.1598,3.1604,3.1623,3.1618,3.1629,3.1511,3.1481,3.1616,3.1616,3.1616,3.1616,3.1616,3.1616,3.046,3.0587,3.0619,3.0777,3.0833,3.0946,3.0997,3.1066,3.1129,3.1266,3.1351,3.1397,3.1473,3.1581,3.1673,3.1692,3.1727,3.1746,3.1763,3.1652,3.1638,3.1625,3.1597,3.1754,3.1754,3.1873,3.1874,3.1875]}]]